Torna al catalogo

SL-16 DEB

AttivoLEO
NORAD 39715·DEBRIS·🇷🇺 Russia

Lanciato Dec 25, 1992 da Baikonur Cosmodrome

Loading…

Prossimi Passaggi (prossime 24 ore)

TLE

AggiornatoSource: Space-Track

Epoca: Sep 13, 2026, 14:15 UTC

1 39715U 92093KF  26256.59395771  .00000572  00000-0  22682-3 0  9992
2 39715  71.0132 328.9994 0006427 277.5905  82.4498 14.33020107647181

Traccia SL-16 DEB in tempo reale con AllMySat

Download on the App Store